ECHO 2 DEB (METAL OBJ), 742

Orbit data source: Space-Track

ECHO 2 DEB (METAL OBJ), 742 is space debris in LEO originally from a launch on Sat, 25 Jan 1964 UTC launched from the Air Force Western Test Range (AFWTR). Debris objects in space refer to the collection of defunct objects orbiting the Earth. Examples of debris include non-operational satellites, rocket bodies, and fragments generated from explosions, collisions, or faulty payload assembly.

Loading next visibility...
Identifier
742, 1964-004C
Orbit
LEO
Last TLE update
13 hours ago
Origin
Manufacturer
Grummann
Mission
Spacecraft
Bus & Motor
ECHO CANISTER, Unknown motor
Mass
35 kg wet, 35 kg dry
Launch date (UTC)
1964-01-25 (61 years ago)
Launch vehicle
Unknown
Launch site
Air Force Western Test Range (AFWTR)
Object type
Payload
Rocket body
Debris
Shape & HBR
Unknown
Radar Cross Section
0.940 m², Medium (>0.1 m² and < 1m²)

Expand to show TLE details & history

TLE from 13 hours ago
0 ECHO 2 DEB (METAL OBJ)
1 00742U 64004C   25128.70424079  .00000078  00000-0  13965-3 0  9990
2 00742  81.4700  27.4598 0172922  40.7905 320.6016 13.26227347963742
Epoch: 2025-05-08T16:54Z
Definitive object data (Epoch: 2025-05-08T16:54:06.404Z)
Latitude
-0°
Longitude
-92.8378°
Altitude
1,063.983 km
Speed
7.368 km/s
True Right ascension
01h 49m 50s
True Declination
0° 00' 00"
Sunlit
Object was in daylight at TLE epoch
Visualization TLE readout
Latitude
9.38596°
Longitude
-91.8604°
Altitude
1,049.539 km
Speed
7.383 km/s
Apparent Right ascension
01h 50m 38s
Apparent Declination
-13° 11' 41"
Sunlit
Object is in daylight
Visualization observer readout
Local Sidereal Time
13:46:00
Azimuth
357.49° N
Elevation
-63.259°
Doppler factor
1
Orbital elements
Apogee altitude
1,288.625 km
Perigee altitude
1,027.981 km
Semi-major axis
7,536.44 km
Eccentricity
0.0172922
Inclination
81.47°
RAAN
27.4598°
Arg. of periapsis
40.7905°
True anomaly
319.32266°
Mean anomaly
320.6016°
Eccentric anomaly
319.96427°
Mean motion
3.31737 °/min
BSTAR
0.00013965
Orbital period
108.52 mins
Loading maneuver chart data...
Loading SW <> Apogee altitude chart data...
Loading historical data...
Loading historical data...
Loading historical data...
Loading historical data...
Loading historical data...
Loading historical data...
Loading historical data...

ECHO 2 DEB (METAL OBJ) Visibility forecast

Observer location: undefined°, undefined°

Span
Click to sort rows by Start time (UTC) header in descending order
Start Az.
Max El. time (UTC)
Max El. Az.
Max El.
End time (UTC)
End Az.
11 mins2025-05-09 06:10:18.431Z328.502° NNW2025-05-09 06:16:18.431Z265.38° W27.52°2025-05-09 06:21:18.431Z217.113° SW
6 mins2025-05-09 16:35:18.431Z113.725° SE2025-05-09 16:38:18.431Z80.835° E17.887°2025-05-09 16:41:18.431Z49.669° ENE
11 mins2025-05-09 18:22:18.431Z205.607° SW2025-05-09 18:27:18.431Z296.572° NW41.085°2025-05-09 18:33:18.431Z2.155° NNE
11 mins2025-05-10 03:53:18.431Z15.412° NNE2025-05-10 03:58:18.431Z69.93° E28.399°2025-05-10 04:04:18.431Z130.941° SE
|